User: anonymous   Login
Location: ActonStarParty
(42.4766°N, 71.4538°W)
Time: 21:57:43
(UTC-05:00)
Language:

ITAMSAT 1 - Orbit

View from above orbital plane
View from above orbital plane
View from above satellite
View from above satellite

Ground track
Ground track

The orbit data is extracted from the following two-line orbital elements,

1 22826U 93061D   18053.51593076  .00000002  00000-0  18482-4 0  9991
2 22826 098.8433 027.6894 0008188 316.4123 043.6411 14.30353193273113
Epoch (UTC): 22 February 2018 12:22:56
Eccentricity: 0.0008188
inclination: 98.8433°
perigee height: 784 km
apogee height: 796 km
right ascension of ascending node: 27.6894°
argument of perigee: 316.4123°
revolutions per day: 14.30353193
mean anomaly at epoch: 43.6411°
orbit number at epoch: 27311

The dashed part of the orbit path shows where the satellite is in the earth's shadow,  

DLR